Location: Poughquag
(41.6090°N, 73.6820°W)
Time: 09:50:19
(UTC-04:00)

Transit 4A - All Passes

Search period start: 14 October 2019 00:00
Search period end: 24 October 2019 00:00
Orbit: 866 x 978 km, 66.8° (Epoch: 13 October)

Date Brightness Start Highest point End Pass type
(mag) Time Alt. Az. Time Alt. Az. Time Alt. Az.
14 Oct - 06:02:38 10° S 06:08:26 38° ESE 06:14:11 10° NE visible
14 Oct - 07:48:50 10° WSW 07:54:47 40° NW 08:00:39 10° NNE daylight
14 Oct - 09:41:42 10° NW 09:42:58 11° NNW 09:44:15 10° NNW daylight
14 Oct - 13:21:27 10° NNE 13:22:48 11° NNE 13:24:07 10° NE daylight
14 Oct - 15:05:11 10° NNW 15:10:55 43° NE 15:16:27 10° ESE daylight
14 Oct - 16:51:52 10° NW 16:57:04 32° WSW 17:02:08 10° S daylight
15 Oct - 06:11:27 10° S 06:17:39 56° ESE 06:23:46 10° NE visible
15 Oct - 07:58:53 10° WSW 08:04:21 30° NW 08:09:46 10° NNE daylight
15 Oct - 13:29:35 10° N 13:32:41 14° NE 13:35:44 10° ENE daylight
15 Oct - 15:14:24 10° NNW 15:20:22 62° ENE 15:26:09 10° SE daylight
15 Oct - 17:01:52 10° WNW 17:06:09 21° WSW 17:10:22 10° SSW daylight
16 Oct - 04:38:55 10° SE 04:41:31 13° E 04:44:05 10° ENE visible
16 Oct - 06:20:34 10° SSW 06:26:56 82° ESE 06:33:13 10° NNE visible
16 Oct - 08:09:13 10° W 08:14:01 22° NW 08:18:46 10° N daylight
16 Oct - 13:38:21 10° N 13:42:30 19° NE 13:46:34 10° E daylight
16 Oct - 15:23:43 10° NNW 15:29:44 89° ENE 15:35:35 10° SSE daylight
16 Oct - 17:12:32 10° WNW 17:15:09 13° WSW 17:17:45 10° SW daylight
17 Oct - 04:46:07 10° SSE 04:50:31 20° ESE 04:54:54 10° ENE visible
17 Oct - 06:29:57 10° SW 06:36:18 71° WNW 06:42:33 10° NNE visible
17 Oct - 08:19:54 10° WNW 08:23:47 17° NW 08:27:38 10° N daylight
17 Oct - 13:47:18 10° N 13:52:12 25° NE 13:56:59 10° E daylight
17 Oct - 15:33:08 10° NW 15:39:01 62° WSW 15:44:45 10° SSE daylight
18 Oct - 04:54:13 10° SSE 04:59:37 30° ESE 05:04:57 10° NE visible
18 Oct - 06:39:34 10° SW 06:45:43 50° NW 06:51:48 10° NNE visible
18 Oct - 08:31:02 10° WNW 08:33:38 13° NNW 08:36:13 10° N daylight
18 Oct - 13:56:22 10° NNW 14:01:49 34° NE 14:07:07 10° ESE daylight
18 Oct - 15:42:41 10° NW 15:48:14 41° WSW 15:53:38 10° S daylight
19 Oct - 05:02:49 10° S 05:08:47 44° ESE 05:14:41 10° NE visible
19 Oct - 06:49:28 10° WSW 06:55:15 36° NW 07:00:57 10° NNE daylight
19 Oct - 12:21:16 10° N 12:23:23 12° NNE 12:25:28 10° NE daylight
19 Oct - 14:05:32 10° NNW 14:11:21 49° NE 14:16:58 10° SE daylight
19 Oct - 15:52:28 10° NW 15:57:21 27° WSW 16:02:09 10° SSW daylight
20 Oct - 05:11:44 10° SSW 05:18:01 65° ESE 05:24:13 10° NE visible
20 Oct - 06:59:37 10° WSW 07:04:51 26° NW 07:10:02 10° N daylight
20 Oct - 12:29:45 10° N 12:33:15 16° NE 12:36:42 10° ENE daylight
20 Oct - 14:14:46 10° NNW 14:20:46 71° ENE 14:26:35 10° SE daylight
20 Oct - 16:02:37 10° WNW 16:06:24 18° WSW 16:10:09 10° SW daylight
21 Oct - 03:38:22 10° SE 03:41:46 15° ESE 03:45:09 10° ENE visible
21 Oct - 05:20:57 10° SSW 05:27:19 88° WNW 05:33:36 10° NNE visible
21 Oct - 07:10:04 10° W 07:14:34 20° NW 07:18:59 10° N daylight
21 Oct - 12:38:35 10° N 12:43:01 21° NE 12:47:21 10° E daylight
21 Oct - 14:24:07 10° NNW 14:30:06 80° WSW 14:35:55 10° SSE daylight
21 Oct - 16:14:02 10° W 16:15:23 11° W 16:16:44 10° WSW daylight
22 Oct - 03:46:00 10° SSE 03:50:49 23° ESE 03:55:35 10° ENE visible
22 Oct - 05:30:25 10° SW 05:36:42 63° WNW 05:42:54 10° NNE visible
22 Oct - 07:20:53 10° WNW 07:24:21 15° NW 07:27:46 10° N daylight
22 Oct - 12:47:35 10° NNW 12:52:41 28° NE 12:57:41 10° ESE daylight
22 Oct - 14:33:35 10° NW 14:39:21 54° WSW 14:44:59 10° S daylight
23 Oct - 03:54:18 10° S 03:59:56 34° ESE 04:05:30 10° NE visible
23 Oct - 05:40:09 10° SW 05:46:10 44° NW 05:52:07 10° NNE visible
23 Oct - 07:32:21 10° NW 07:34:14 11° NNW 07:36:07 10° NNW daylight
23 Oct - 12:56:41 10° NNW 13:02:16 39° NE 13:07:42 10° ESE daylight
23 Oct - 14:43:12 10° NW 14:48:32 35° WSW 14:53:45 10° S daylight
